Location: Richterswil
(47.2055°N, 8.7071°E)
Time: 20:15:31
(UTC+00:00)

CZ-2D R/B - Pass Details

Date: 07 June 2020
Orbit: 791 x 846 km, 98.7° (Epoch: 09 July)

Event Time Altitude Azimuth Distance (km) Brightness Sun altitude
Rises 02:04:54 0° 7° (N) 3,311 6.4 -11.2°
Reaches altitude 10° 02:07:24 10° 359° (N) 2,373 5.3 -10.9°
Maximum altitude 02:12:06 35° 295° (WNW) 1,263 3.0 -10.4°
Enters shadow 02:16:21 12° 233° (SW) 2,208 3.8 -10.0°
